LiveATC.Net - Listen to live air traffic control over the Internet! Contact LiveATC.net for advertising information


ICAO: ENKB  IATA: KSU   Airport: Kristiansund Kvernberget Airport
City: Kristiansund
Country: Norway   Continent: Europe
ENKB METAR Weather: ENKB 281420Z 23011KT 9999 FEW013 SCT023 BKN055 13/11 Q1003
ENKB Flight Activity (FlightAware)
ENKB Twr/App
Feed Status: DOWN
Last heard on: 2015-08-27 20:00:03 (0 days 18 hours 49 minutes ago)
ENKB Twr/App Audio Archives
FacilityFrequency
Kvernberget Approach121.200
Kvernberget Tower118.300


NOTICE

Unauthorized use prohibited. See LiveATC.net Terms of Service


Find LiveATC Audio Streams


Airport/ARTCC Code

Frequency
(e.g., 124.400, 128.75)
Site-wide search

Browse LiveATC Feeds
LiveATC Coverage Map
Top 50 LiveATC Feeds
Bad Weather Areas

LiveATC FAQ
Offer a LiveATC Feed
Contact LiveATC.net
Press Inquiries

LiveATC on iPhone
LiveATC on Android

LiveATC Mobile
(Mobile browser)

ATC Audio Archives
Interesting Recordings

LiveATC Forums


Home Page
About LiveATC.net
Make a Donation
LiveATC Bookstore

Terms of Use
Privacy Policy

ATC/Radar Sites
U.S. ARTCC Freqs
Canadian Air Freqs

AIRMETs/SIGMETs

FAA Airport Status
Nat'l Airspace Status
Arrival Demand Charts


Server Software By:
Icecast.org
Liquidsoap

Please make a donation to help us keep growing!